Namest Nad Oslav, Czech Republic

8:57 PM CEST on October 19, 2017 (GMT +0200)
Namest

Weather History for LKNA - September, 2013

Change the Weather History Date:

Saturday, September 14, 2013

  Actual Average Record
Temperature  
Mean Temperature 58 °F -  
Max Temperature 64 °F - - ()
Min Temperature 51 °F - - ()
Degree Days  
Heating Degree Days 8    
Growing Degree Days 8 (Base 50)    
Moisture  
Dew Point 52 °F    
Average Humidity 87    
Maximum Humidity 100    
Minimum Humidity 68    
Precipitation  
Precipitation 0.00 in - - ()
Sea Level Pressure  
Sea Level Pressure 29.95 in    
Wind  
Wind Speed 12 mph ()    
Max Wind Speed 24 mph    
Max Gust Speed -    
Visibility 5.9 miles    
Events Rain    
T = Trace of Precipitation, MM = Missing Value Source: Averaged Metar Reports

Daily Weather History Graph

Daily Weather History Graph

Search for Another Location

Airport or City:

Trip Planner

Search our weather history database for the weather conditions in past years. The results will help you decide how hot, cold, wet, or windy it might be!

Date:

Astronomy

Sep. 14, 2013 Rise Set
Actual Time 6:30 AM CEST 7:10 PM CEST
Civil Twilight 5:58 AM CEST 7:42 PM CEST
Nautical Twilight 5:20 AM CEST 8:20 PM CEST
Astronomical Twilight 4:39 AM CEST 9:00 PM CEST
Moon 3:58 PM CEST (9/14) 12:20 AM CEST (9/14)
Length of Visible Light 13h 44m
Length of Day
12h 40m
Waxing Gibbous, 69% of the Moon is Illuminated
Sep 14
Waxing Gibbous
Sep 19
Full
Sep 27
Last Quarter
Oct 5
New
Oct 12
First Quarter

Hourly Weather History & Observations

Time (CEST) Temp. Dew Point Humidity Pressure Visibility Wind Dir Wind Speed Gust Speed Precip Events Conditions
12:00 AM 51.8 °F 50.0 °F 94% 30.04 in 6.2 mi West 13.8 mph - N/A Rain Light Rain
1:00 AM 53.6 °F 51.8 °F 94% 30.01 in 6.2 mi West 12.7 mph - N/A Rain Light Rain
2:00 AM 51.8 °F 50.0 °F 94% 30.01 in 6.2 mi West 12.7 mph - N/A Rain Light Rain
3:00 AM 51.8 °F 51.8 °F 100% 29.98 in 6.2 mi West 12.7 mph - N/A Rain Light Rain
4:00 AM 51.8 °F 51.8 °F 100% 29.95 in 6.2 mi West 13.8 mph - N/A Rain Light Rain
5:00 AM 51.8 °F 51.8 °F 100% 29.92 in 6.2 mi West 16.1 mph - N/A Rain Light Rain
6:00 AM 53.6 °F 51.8 °F 94% 29.92 in 6.2 mi WNW 17.3 mph - N/A Rain Light Rain
7:00 AM 53.6 °F 51.8 °F 94% 29.92 in 5.0 mi WNW 18.4 mph - N/A Rain Light Rain
8:00 AM 53.6 °F 51.8 °F 94% 29.92 in 3.7 mi WNW 20.7 mph - N/A Rain Light Rain
9:00 AM 51.8 °F 51.8 °F 100% 29.92 in 5.6 mi WNW 18.4 mph - N/A Rain Light Rain
10:00 AM 55.4 °F 53.6 °F 94% 29.92 in 6.2 mi WNW 24.2 mph - N/A   Mostly Cloudy
11:00 AM 55.4 °F 53.6 °F 94% 29.92 in 6.2 mi WNW 23.0 mph - N/A   Mostly Cloudy
12:00 PM 59.0 °F 53.6 °F 82% 29.92 in 6.2 mi WNW 24.2 mph - N/A   Mostly Cloudy
1:00 PM 59.0 °F 51.8 °F 77% 29.95 in 6.2 mi NW 19.6 mph - N/A   Overcast
2:00 PM 59.0 °F 50.0 °F 72% 29.95 in 6.2 mi NW 12.7 mph - N/A   Overcast
3:00 PM 60.8 °F 51.8 °F 72% 29.95 in 6.2 mi NW 12.7 mph - N/A   Mostly Cloudy
4:00 PM 62.6 °F 51.8 °F 68% 29.95 in - NW 11.5 mph - N/A   Clear
5:00 PM 62.6 °F 53.6 °F 72% 29.95 in - North 6.9 mph - N/A   Clear
6:00 PM 64.4 °F 53.6 °F 68% 29.95 in 6.2 mi NNW 6.9 mph - N/A   Scattered Clouds
7:00 PM 60.8 °F 53.6 °F 77% 29.95 in - Variable 2.3 mph - N/A   Clear
8:00 PM 59.0 °F 51.8 °F 77% 29.95 in - NW 4.6 mph - N/A   Clear
9:00 PM 55.4 °F 53.6 °F 94% 29.95 in - WSW 2.3 mph - N/A   Clear
10:00 PM 53.6 °F 51.8 °F 94% 29.98 in - WSW 3.5 mph - N/A   Clear
11:00 PM 53.6 °F 50.0 °F 88% 29.95 in - WNW 6.9 mph - N/A   Clear